Location: Colonia Mina de C?rbuni
(46.1667°N, 22.7167°E)
Time: 07:38:37
(UTC+00:00)

Vanguard 2 - Pass Details

Date: 13 April 2024
Orbit: 552 x 2914 km, 32.9° (Epoch: 24 May)

Event Time Altitude Azimuth Distance (km) Brightness Sun altitude
Rises 23:42:08 0° 195° (SSW) 6,263 - -32.0°
Reaches altitude 10° 23:47:41 10° 182° (S) 5,510 - -31.6°
Exits shadow 23:55:14 20° 155° (SSE) 4,894 11.2 -31.1°
Maximum altitude 23:58:49 21° 141° (SE) 4,822 11.3 -30.8°
Drops below altitude 10° 00:09:56 10° 100° (E) 5,557 12.1 -29.9°
Sets 00:15:28 0° 87° (E) 6,335 12.6 -29.5°
